When you browse on this site, cookies collect data to enhance your experience and personalize the content and advertising you see.
Visit our Privacy Policy to learn more. By continuing to use the site, you agree to this use of cookies and data.
  • In Österreich
  • Länderverzeichnis
  • Für 7 Tage
  • Wassertemperatur
  • Wetterkarte
  • News
  • Widgets
  • user-avatar
    Anmelden

    Stündliche Wetter El Llano

    Heute, 21 Oktober, Montag

    Zeit Temperatur Niederschläge Wind Luftdruck Luftfeuchtigkeit
    00:00 +16°C° 0 mm 1 m/S 592 mmHg 80%
    01:00 +15°C° 0 mm 1 m/S 592 mmHg 82%
    02:00 +15°C° 0 mm 1 m/S 591 mmHg 84%
    03:00 +15°C° 0 mm 1 m/S 591 mmHg 85%
    04:00 +15°C° 0 mm 1 m/S 591 mmHg 86%
    05:00 +15°C° 0 mm 1 m/S 591 mmHg 86%
    06:00 +16°C° 0 mm 1 m/S 592 mmHg 80%
    07:00 +19°C° 0 mm 1 m/S 593 mmHg 74%
    08:00 +21°C° 0 mm 1 m/S 595 mmHg 68%
    09:00 +22°C° 0 mm 1 m/S 595 mmHg 62%
    10:00 +24°C° 0 mm 1 m/S 595 mmHg 56%
    11:00 +25°C° 0 mm 1 m/S 596 mmHg 49%
    12:00 +25°C° 0.3 mm 1 m/S 595 mmHg 50%
    13:00 +25°C° 0.3 mm 2 m/S 594 mmHg 51%
    14:00 +25°C° 0.3 mm 2 m/S 594 mmHg 52%
    15:00 +24°C° 0.8 mm 2 m/S 593 mmHg 58%
    16:00 +21°C° 0.8 mm 2 m/S 593 mmHg 64%
    17:00 +20°C° 0.8 mm 2 m/S 593 mmHg 70%
    18:00 +20°C° 1.1 mm 1 m/S 593 mmHg 74%
    19:00 +19°C° 1.1 mm 1 m/S 594 mmHg 77%
    20:00 +17°C° 1.1 mm 0 m/S 594 mmHg 81%
    21:00 +16°C° 0.1 mm 0 m/S 594 mmHg 82%
    22:00 +16°C° 0.1 mm 0 m/S 594 mmHg 83%
    23:00 +15°C° 0.1 mm 0 m/S 594 mmHg 84%

    Morgen, 22 Oktober, Dienstag

    Zeit Temperatur Niederschläge Wind Luftdruck Luftfeuchtigkeit
    00:00 +15°C° 0.1 mm 0 m/S 594 mmHg 86%
    01:00 +15°C° 0.1 mm 0 m/S 593 mmHg 88%
    02:00 +14°C° 0.1 mm 0 m/S 593 mmHg 89%
    03:00 +15°C° 0.1 mm 1 m/S 593 mmHg 91%
    04:00 +15°C° 0.1 mm 1 m/S 593 mmHg 93%
    05:00 +15°C° 0.1 mm 1 m/S 593 mmHg 94%
    06:00 +16°C° 0 mm 1 m/S 594 mmHg 90%
    07:00 +18°C° 0 mm 1 m/S 595 mmHg 86%
    08:00 +19°C° 0 mm 1 m/S 595 mmHg 82%
    09:00 +19°C° 0.3 mm 2 m/S 596 mmHg 78%
    10:00 +20°C° 0.3 mm 2 m/S 596 mmHg 74%
    11:00 +21°C° 0.3 mm 3 m/S 596 mmHg 70%
    12:00 +21°C° 0.6 mm 4 m/S 595 mmHg 70%
    13:00 +20°C° 0.6 mm 4 m/S 595 mmHg 70%
    14:00 +20°C° 0.6 mm 5 m/S 594 mmHg 71%
    15:00 +19°C° 0.3 mm 5 m/S 594 mmHg 74%
    16:00 +18°C° 0.3 mm 4 m/S 594 mmHg 78%
    17:00 +17°C° 0.3 mm 4 m/S 594 mmHg 82%
    18:00 +16°C° 0.1 mm 3 m/S 594 mmHg 86%
    19:00 +16°C° 0.1 mm 2 m/S 594 mmHg 89%
    20:00 +15°C° 0.1 mm 2 m/S 594 mmHg 92%
    21:00 +15°C° 0 mm 1 m/S 594 mmHg 93%
    22:00 +14°C° 0 mm 1 m/S 594 mmHg 94%
    23:00 +13°C° 0 mm 0 m/S 594 mmHg 95%

    übermorgen, 23 Oktober, Mittwoch

    Zeit Temperatur Niederschläge Wind Luftdruck Luftfeuchtigkeit
    00:00 +13°C° 0 mm 0 m/S 594 mmHg 93%
    01:00 +13°C° 0 mm 0 m/S 594 mmHg 92%
    02:00 +14°C° 0 mm 0 m/S 594 mmHg 91%
    03:00 +14°C° 0.1 mm 0 m/S 594 mmHg 90%
    04:00 +15°C° 0.1 mm 1 m/S 594 mmHg 90%
    05:00 +15°C° 0.1 mm 1 m/S 594 mmHg 89%
    06:00 +15°C° 0.1 mm 1 m/S 594 mmHg 86%
    07:00 +16°C° 0.1 mm 1 m/S 595 mmHg 83%
    08:00 +18°C° 0.1 mm 1 m/S 595 mmHg 80%
    09:00 +18°C° 0 mm 2 m/S 595 mmHg 74%
    10:00 +19°C° 0 mm 2 m/S 595 mmHg 68%
    11:00 +20°C° 0 mm 2 m/S 595 mmHg 62%
    12:00 +21°C° 0.1 mm 3 m/S 595 mmHg 62%
    13:00 +21°C° 0.1 mm 3 m/S 594 mmHg 61%
    14:00 +21°C° 0.1 mm 4 m/S 593 mmHg 61%
    15:00 +20°C° 0.2 mm 4 m/S 593 mmHg 67%
    16:00 +19°C° 0.2 mm 3 m/S 593 mmHg 72%
    17:00 +18°C° 0.2 mm 3 m/S 592 mmHg 78%
    18:00 +17°C° 0 mm 3 m/S 592 mmHg 83%
    19:00 +16°C° 0 mm 2 m/S 593 mmHg 88%
    20:00 +15°C° 0 mm 1 m/S 593 mmHg 93%
    21:00 +14°C° 0 mm 1 m/S 592 mmHg 94%
    22:00 +14°C° 0 mm 1 m/S 592 mmHg 95%
    23:00 +12°C° 0 mm 0 m/S 592 mmHg 96%

    24 Oktober, Donnerstag

    Zeit Temperatur Niederschläge Wind Luftdruck Luftfeuchtigkeit
    00:00 +12°C° 0 mm 0 m/S 592 mmHg 96%
    01:00 +12°C° 0 mm 0 m/S 591 mmHg 96%
    02:00 +12°C° 0 mm 0 m/S 591 mmHg 96%
    03:00 +12°C° 0 mm 0 m/S 591 mmHg 94%
    04:00 +12°C° 0 mm 0 m/S 591 mmHg 93%
    05:00 +12°C° 0 mm 0 m/S 591 mmHg 92%
    06:00 +13°C° 0 mm 0 m/S 592 mmHg 87%
    07:00 +14°C° 0 mm 0 m/S 593 mmHg 82%
    08:00 +15°C° 0 mm 0 m/S 593 mmHg 76%
    09:00 +19°C° 0 mm 1 m/S 593 mmHg 69%
    10:00 +20°C° 0 mm 2 m/S 594 mmHg 61%
    11:00 +23°C° 0 mm 2 m/S 594 mmHg 54%
    12:00 +22°C° 0 mm 3 m/S 594 mmHg 53%
    13:00 +23°C° 0 mm 4 m/S 593 mmHg 51%
    14:00 +23°C° 0 mm 4 m/S 593 mmHg 50%
    15:00 +21°C° 0.2 mm 4 m/S 592 mmHg 58%
    16:00 +20°C° 0.2 mm 3 m/S 592 mmHg 67%
    17:00 +18°C° 0.2 mm 3 m/S 591 mmHg 75%
    18:00 +17°C° 0.1 mm 2 m/S 592 mmHg 80%
    19:00 +17°C° 0.1 mm 2 m/S 592 mmHg 85%
    20:00 +16°C° 0.1 mm 1 m/S 592 mmHg 90%
    21:00 +15°C° 0 mm 1 m/S 592 mmHg 92%
    22:00 +15°C° 0 mm 1 m/S 592 mmHg 94%
    23:00 +15°C° 0 mm 1 m/S 592 mmHg 95%

    25 Oktober, Freitag

    Zeit Temperatur Niederschläge Wind Luftdruck Luftfeuchtigkeit
    00:00 +15°C° 0 mm 1 m/S 592 mmHg 96%
    01:00 +14°C° 0 mm 1 m/S 592 mmHg 96%
    02:00 +14°C° 0 mm 1 m/S 592 mmHg 96%
    03:00 +14°C° 0.1 mm 1 m/S 592 mmHg 95%
    04:00 +14°C° 0.1 mm 1 m/S 592 mmHg 94%
    05:00 +14°C° 0.1 mm 1 m/S 592 mmHg 93%
    06:00 +15°C° 0.1 mm 1 m/S 593 mmHg 91%
    07:00 +15°C° 0.1 mm 1 m/S 593 mmHg 89%
    08:00 +15°C° 0.1 mm 1 m/S 594 mmHg 87%
    09:00 +15°C° 0.2 mm 1 m/S 594 mmHg 87%
    10:00 +16°C° 0.2 mm 2 m/S 593 mmHg 86%
    11:00 +16°C° 0.2 mm 2 m/S 593 mmHg 85%
    12:00 +16°C° 0.1 mm 3 m/S 593 mmHg 84%
    13:00 +15°C° 0.1 mm 4 m/S 593 mmHg 82%
    14:00 +15°C° 0.1 mm 4 m/S 592 mmHg 80%
    15:00 +14°C° 0 mm 4 m/S 592 mmHg 82%
    16:00 +13°C° 0 mm 3 m/S 592 mmHg 84%
    17:00 +13°C° 0 mm 3 m/S 593 mmHg 86%
    18:00 +12°C° 0 mm 3 m/S 593 mmHg 87%
    19:00 +13°C° 0 mm 2 m/S 593 mmHg 88%
    20:00 +13°C° 0 mm 2 m/S 594 mmHg 89%
    21:00 +13°C° 0 mm 2 m/S 594 mmHg 89%
    22:00 +13°C° 0 mm 2 m/S 594 mmHg 89%
    23:00 +13°C° 0 mm 2 m/S 594 mmHg 89%

    26 Oktober, Samstag

    Zeit Temperatur Niederschläge Wind Luftdruck Luftfeuchtigkeit
    00:00 +13°C° 0 mm 2 m/S 594 mmHg 89%
    01:00 +12°C° 0 mm 2 m/S 593 mmHg 89%
    02:00 +12°C° 0 mm 1 m/S 593 mmHg 89%
    03:00 +12°C° 0 mm 1 m/S 593 mmHg 89%
    04:00 +12°C° 0 mm 1 m/S 593 mmHg 89%
    05:00 +12°C° 0 mm 1 m/S 593 mmHg 90%
    06:00 +13°C° 0 mm 1 m/S 594 mmHg 87%
    07:00 +13°C° 0 mm 1 m/S 594 mmHg 84%
    08:00 +14°C° 0 mm 1 m/S 595 mmHg 82%
    09:00 +15°C° 0 mm 2 m/S 594 mmHg 77%
    10:00 +16°C° 0 mm 2 m/S 594 mmHg 73%
    11:00 +17°C° 0 mm 2 m/S 594 mmHg 68%
    12:00 +17°C° 0 mm 2 m/S 594 mmHg 67%
    13:00 +18°C° 0 mm 3 m/S 593 mmHg 66%
    14:00 +19°C° 0 mm 3 m/S 593 mmHg 64%
    15:00 +17°C° 0 mm 3 m/S 593 mmHg 69%
    16:00 +16°C° 0 mm 3 m/S 593 mmHg 74%
    17:00 +15°C° 0 mm 2 m/S 592 mmHg 79%
    18:00 +14°C° 0.9 mm 2 m/S 593 mmHg 82%
    19:00 +14°C° 0.9 mm 1 m/S 593 mmHg 85%
    20:00 +13°C° 0.9 mm 1 m/S 593 mmHg 88%
    21:00 +13°C° 0.7 mm 1 m/S 593 mmHg 89%
    22:00 +12°C° 0.7 mm 0 m/S 593 mmHg 90%
    23:00 +13°C° 0.7 mm 0 m/S 593 mmHg 91%

    27 Oktober, Sonntag

    Zeit Temperatur Niederschläge Wind Luftdruck Luftfeuchtigkeit
    00:00 +13°C° 0 mm 1 m/S 593 mmHg 91%
    01:00 +13°C° 0 mm 1 m/S 592 mmHg 91%
    02:00 +13°C° 0 mm 1 m/S 592 mmHg 91%
    03:00 +13°C° 0 mm 1 m/S 592 mmHg 91%
    04:00 +11°C° 0 mm 0 m/S 591 mmHg 91%
    05:00 +11°C° 0 mm 0 m/S 591 mmHg 92%
    06:00 +13°C° 0 mm 0 m/S 592 mmHg 85%
    07:00 +14°C° 0 mm 0 m/S 593 mmHg 79%
    08:00 +16°C° 0 mm 0 m/S 594 mmHg 72%
    09:00 +20°C° 0 mm 1 m/S 595 mmHg 66%
    10:00 +20°C° 0 mm 2 m/S 595 mmHg 61%
    11:00 +23°C° 0 mm 2 m/S 595 mmHg 55%
    12:00 +22°C° 0.4 mm 3 m/S 595 mmHg 55%
    13:00 +22°C° 0.4 mm 3 m/S 594 mmHg 56%
    14:00 +22°C° 0.4 mm 4 m/S 594 mmHg 56%
    15:00 +21°C° 0.4 mm 3 m/S 594 mmHg 62%
    16:00 +19°C° 0.4 mm 3 m/S 593 mmHg 68%
    17:00 +18°C° 0.4 mm 3 m/S 593 mmHg 74%
    18:00 +17°C° 0.1 mm 2 m/S 593 mmHg 78%
    19:00 +16°C° 0.1 mm 1 m/S 593 mmHg 82%
    20:00 +15°C° 0.1 mm 1 m/S 593 mmHg 86%
    21:00 +14°C° 0 mm 0 m/S 593 mmHg 86%
    22:00 +14°C° 0 mm 0 m/S 593 mmHg 87%
    23:00 +13°C° 0 mm 0 m/S 593 mmHg 87%
    Mehr zeigen